contact:dominique.lefevre@mio.osupytheas.fr, maurice.libes@osupytheas.fr, didier.mallarino@osupytheas.fr
Project:EMSO http://www.emso-fr.org/EMSO-France
Depth: 2436.0 m
Title:EMSO Ligure Ouest : Data MII capteur MICROCAT
DateTime_Computer,Latitude,Longitude,Temperature,Conductivity,Pressure,DateTime_Instrument
DateTime_Computer,Latitude,Longitude,degC,S m-1,dbar,DateTime_Instrument
2021-10-22T00:00:57Z,42.805,6.029,13.2998,4.60016,2470.413,2021-10-22T02:02:21Z
2021-10-22T00:04:00Z,42.805,6.029,13.2990,4.60013,2470.38,2021-10-22T02:05:24Z
2021-10-22T00:07:03Z,42.805,6.029,13.2991,4.60011,2470.366,2021-10-22T02:08:27Z
2021-10-22T00:10:06Z,42.805,6.029,13.2997,4.60013,2470.38,2021-10-22T02:11:30Z
2021-10-22T00:13:10Z,42.805,6.029,13.2993,4.60015,2470.343,2021-10-22T02:14:33Z
2021-10-22T00:16:13Z,42.805,6.029,13.2994,4.60014,2470.366,2021-10-22T02:17:37Z
2021-10-22T00:19:16Z,42.805,6.029,13.3000,4.60013,2470.343,2021-10-22T02:20:40Z
2021-10-22T00:22:19Z,42.805,6.029,13.3006,4.60015,2470.38,2021-10-22T02:23:43Z
2021-10-22T00:25:22Z,42.805,6.029,13.3001,4.60031,2470.343,2021-10-22T02:26:46Z
2021-10-22T00:28:25Z,42.805,6.029,13.3017,4.60037,2470.343,2021-10-22T02:29:49Z
2021-10-22T00:31:28Z,42.805,6.029,13.2998,4.60026,2470.343,2021-10-22T02:32:52Z
2021-10-22T00:34:31Z,42.805,6.029,13.3006,4.60018,2470.357,2021-10-22T02:35:55Z
2021-10-22T00:37:34Z,42.805,6.029,13.3022,4.60033,2470.357,2021-10-22T02:38:58Z
2021-10-22T00:40:38Z,42.805,6.029,13.3016,4.60055,2470.334,2021-10-22T02:42:02Z
2021-10-22T00:43:41Z,42.805,6.029,13.3019,4.60062,2470.343,2021-10-22T02:45:05Z
2021-10-22T00:46:44Z,42.805,6.029,13.3026,4.60049,2470.343,2021-10-22T02:48:08Z
2021-10-22T00:49:47Z,42.805,6.029,13.3018,4.60087,2470.343,2021-10-22T02:51:11Z
2021-10-22T00:52:50Z,42.805,6.029,13.3018,4.60047,2470.357,2021-10-22T02:54:14Z
2021-10-22T00:55:53Z,42.805,6.029,13.3021,4.60043,2470.357,2021-10-22T02:57:17Z
2021-10-22T00:58:56Z,42.805,6.029,13.3026,4.60088,2470.357,2021-10-22T03:00:20Z
2021-10-22T01:01:59Z,42.805,6.029,13.3008,4.60077,2470.357,2021-10-22T03:03:23Z
2021-10-22T01:05:03Z,42.805,6.029,13.3010,4.60069,2470.334,2021-10-22T03:06:27Z
2021-10-22T01:08:06Z,42.805,6.029,13.3009,4.60064,2470.334,2021-10-22T03:09:30Z
2021-10-22T01:11:09Z,42.805,6.029,13.3011,4.60064,2470.31,2021-10-22T03:12:33Z
2021-10-22T01:14:12Z,42.805,6.029,13.3031,4.60066,2470.334,2021-10-22T03:15:36Z
2021-10-22T01:17:15Z,42.805,6.029,13.3014,4.60075,2470.343,2021-10-22T03:18:39Z
2021-10-22T01:20:18Z,42.805,6.029,13.3016,4.60080,2470.343,2021-10-22T03:21:42Z
2021-10-22T01:23:21Z,42.805,6.029,13.3017,4.60083,2470.334,2021-10-22T03:24:45Z
2021-10-22T01:26:24Z,42.805,6.029,13.3010,4.60072,2470.32,2021-10-22T03:27:49Z
2021-10-22T01:29:28Z,42.805,6.029,13.3018,4.60077,2470.343,2021-10-22T03:30:52Z
2021-10-22T01:32:31Z,42.805,6.029,13.3010,4.60087,2470.334,2021-10-22T03:33:55Z
2021-10-22T01:35:34Z,42.805,6.029,13.3015,4.60087,2470.297,2021-10-22T03:36:58Z
2021-10-22T01:38:37Z,42.805,6.029,13.3034,4.60074,2470.297,2021-10-22T03:40:01Z
2021-10-22T01:41:40Z,42.805,6.029,13.3020,4.60084,2470.273,2021-10-22T03:43:04Z
2021-10-22T01:44:43Z,42.805,6.029,13.3014,4.60104,2470.32,2021-10-22T03:46:07Z
2021-10-22T01:47:46Z,42.805,6.029,13.3011,4.60093,2470.297,2021-10-22T03:49:10Z
2021-10-22T01:50:49Z,42.805,6.029,13.3026,4.60076,2470.31,2021-10-22T03:52:13Z
2021-10-22T01:53:53Z,42.805,6.029,13.3013,4.60061,2470.31,2021-10-22T03:55:17Z
2021-10-22T01:56:56Z,42.805,6.029,13.3014,4.60087,2470.357,2021-10-22T03:58:20Z
2021-10-22T01:59:59Z,42.805,6.029,13.3008,4.60078,2470.32,2021-10-22T04:01:23Z
2021-10-22T02:03:02Z,42.805,6.029,13.3019,4.60093,2470.287,2021-10-22T04:04:26Z
2021-10-22T02:06:05Z,42.805,6.029,13.3022,4.60099,2470.31,2021-10-22T04:07:29Z
2021-10-22T02:09:08Z,42.805,6.029,13.3016,4.60076,2470.31,2021-10-22T04:10:32Z
2021-10-22T02:12:11Z,42.805,6.029,13.3016,4.60072,2470.334,2021-10-22T04:13:35Z
2021-10-22T02:15:14Z,42.805,6.029,13.3024,4.60086,2470.31,2021-10-22T04:16:38Z
2021-10-22T02:18:18Z,42.805,6.029,13.3012,4.60077,2470.287,2021-10-22T04:19:42Z
2021-10-22T02:21:21Z,42.805,6.029,13.3006,4.60088,2470.32,2021-10-22T04:22:45Z
2021-10-22T02:24:24Z,42.805,6.029,13.3038,4.60090,2470.297,2021-10-22T04:25:48Z
2021-10-22T02:27:27Z,42.805,6.029,13.3026,4.60099,2470.31,2021-10-22T04:28:51Z
2021-10-22T02:30:30Z,42.805,6.029,13.3016,4.60107,2470.31,2021-10-22T04:31:54Z
2021-10-22T02:33:33Z,42.805,6.029,13.3016,4.60093,2470.297,2021-10-22T04:34:57Z
2021-10-22T02:36:36Z,42.805,6.029,13.3015,4.60085,2470.31,2021-10-22T04:38:00Z
2021-10-22T02:39:39Z,42.805,6.029,13.3015,4.60128,2470.297,2021-10-22T04:41:03Z
2021-10-22T02:42:43Z,42.805,6.029,13.3017,4.60110,2470.334,2021-10-22T04:44:07Z
2021-10-22T02:45:46Z,42.805,6.029,13.3023,4.60108,2470.32,2021-10-22T04:47:10Z
2021-10-22T02:48:49Z,42.805,6.029,13.3024,4.60078,2470.297,2021-10-22T04:50:13Z
2021-10-22T02:51:52Z,42.805,6.029,13.3024,4.60086,2470.297,2021-10-22T04:53:16Z
2021-10-22T02:54:55Z,42.805,6.029,13.3022,4.60044,2470.334,2021-10-22T04:56:19Z
2021-10-22T02:57:58Z,42.805,6.029,13.3003,4.60053,2470.31,2021-10-22T04:59:22Z
2021-10-22T03:01:01Z,42.805,6.029,13.3031,4.60097,2470.297,2021-10-22T05:02:25Z
2021-10-22T03:04:04Z,42.805,6.029,13.3024,4.60069,2470.343,2021-10-22T05:05:28Z
2021-10-22T03:07:08Z,42.805,6.029,13.3021,4.60132,2470.334,2021-10-22T05:08:32Z
2021-10-22T03:10:11Z,42.805,6.029,13.3035,4.60070,2470.334,2021-10-22T05:11:35Z
2021-10-22T03:13:14Z,42.805,6.029,13.3029,4.60091,2470.32,2021-10-22T05:14:38Z
2021-10-22T03:16:17Z,42.805,6.029,13.3016,4.60081,2470.343,2021-10-22T05:17:41Z
2021-10-22T03:19:20Z,42.805,6.029,13.3029,4.60080,2470.334,2021-10-22T05:20:44Z
2021-10-22T03:22:23Z,42.805,6.029,13.3026,4.60074,2470.31,2021-10-22T05:23:47Z
2021-10-22T03:25:26Z,42.805,6.029,13.3016,4.60070,2470.357,2021-10-22T05:26:50Z
2021-10-22T03:28:29Z,42.805,6.029,13.3009,4.60090,2470.334,2021-10-22T05:29:53Z
2021-10-22T03:31:33Z,42.805,6.029,13.3009,4.60119,2470.334,2021-10-22T05:32:57Z
2021-10-22T03:34:36Z,42.805,6.029,13.3010,4.60130,2470.343,2021-10-22T05:36:00Z
2021-10-22T03:37:39Z,42.805,6.029,13.3015,4.60097,2470.32,2021-10-22T05:39:03Z
2021-10-22T03:40:42Z,42.805,6.029,13.3018,4.60067,2470.357,2021-10-22T05:42:06Z
2021-10-22T03:43:45Z,42.805,6.029,13.3015,4.60112,2470.32,2021-10-22T05:45:09Z
2021-10-22T03:46:48Z,42.805,6.029,13.3011,4.60092,2470.38,2021-10-22T05:48:12Z
2021-10-22T03:49:51Z,42.805,6.029,13.3014,4.60103,2470.343,2021-10-22T05:51:15Z
2021-10-22T03:52:54Z,42.805,6.029,13.3011,4.60087,2470.32,2021-10-22T05:54:18Z
2021-10-22T03:55:58Z,42.805,6.029,13.3003,4.60057,2470.404,2021-10-22T05:57:22Z
2021-10-22T03:59:01Z,42.805,6.029,13.3012,4.60061,2470.357,2021-10-22T06:00:25Z
2021-10-22T04:02:04Z,42.805,6.029,13.3011,4.60099,2470.357,2021-10-22T06:03:28Z
2021-10-22T04:05:07Z,42.805,6.029,13.3013,4.60097,2470.366,2021-10-22T06:06:31Z
2021-10-22T04:08:10Z,42.805,6.029,13.3020,4.60119,2470.38,2021-10-22T06:09:34Z
2021-10-22T04:11:13Z,42.805,6.029,13.3013,4.60110,2470.39,2021-10-22T06:12:37Z
2021-10-22T04:14:16Z,42.805,6.029,13.3007,4.60117,2470.353,2021-10-22T06:15:40Z
2021-10-22T04:17:19Z,42.805,6.029,13.3027,4.60095,2470.366,2021-10-22T06:18:43Z
2021-10-22T04:20:22Z,42.805,6.029,13.3009,4.60095,2470.38,2021-10-22T06:21:47Z
2021-10-22T04:23:26Z,42.805,6.029,13.3016,4.60117,2470.366,2021-10-22T06:24:50Z
2021-10-22T04:26:29Z,42.805,6.029,13.3024,4.60060,2470.39,2021-10-22T06:27:53Z
2021-10-22T04:29:32Z,42.805,6.029,13.3024,4.60064,2470.343,2021-10-22T06:30:56Z
2021-10-22T04:32:35Z,42.805,6.029,13.3025,4.60119,2470.39,2021-10-22T06:33:59Z
2021-10-22T04:35:38Z,42.805,6.029,13.3014,4.60092,2470.343,2021-10-22T06:37:02Z
2021-10-22T04:38:41Z,42.805,6.029,13.3024,4.60081,2470.38,2021-10-22T06:40:05Z
2021-10-22T04:41:44Z,42.805,6.029,13.3012,4.60097,2470.404,2021-10-22T06:43:08Z
2021-10-22T04:44:47Z,42.805,6.029,13.3024,4.60079,2470.39,2021-10-22T06:46:12Z
2021-10-22T04:47:51Z,42.805,6.029,13.3031,4.60088,2470.38,2021-10-22T06:49:15Z
2021-10-22T04:50:54Z,42.805,6.029,13.3011,4.60070,2470.404,2021-10-22T06:52:18Z
2021-10-22T04:53:57Z,42.805,6.029,13.3023,4.60078,2470.39,2021-10-22T06:55:21Z
2021-10-22T04:57:00Z,42.805,6.029,13.3020,4.60077,2470.413,2021-10-22T06:58:24Z
2021-10-22T05:00:03Z,42.805,6.029,13.3015,4.60062,2470.427,2021-10-22T07:01:27Z
2021-10-22T05:03:06Z,42.805,6.029,13.3034,4.60084,2470.404,2021-10-22T07:04:30Z
2021-10-22T05:06:09Z,42.805,6.029,13.3021,4.60067,2470.413,2021-10-22T07:07:33Z
2021-10-22T05:09:12Z,42.805,6.029,13.3007,4.60064,2470.427,2021-10-22T07:10:37Z
2021-10-22T05:12:16Z,42.805,6.029,13.3004,4.60049,2470.427,2021-10-22T07:13:40Z
2021-10-22T05:15:19Z,42.805,6.029,13.3014,4.60062,2470.45,2021-10-22T07:16:43Z
2021-10-22T05:18:22Z,42.805,6.029,13.3008,4.60054,2470.399,2021-10-22T07:19:46Z
2021-10-22T05:21:25Z,42.805,6.029,13.3011,4.60038,2470.437,2021-10-22T07:22:49Z
2021-10-22T05:24:28Z,42.805,6.029,13.3009,4.60049,2470.413,2021-10-22T07:25:52Z
2021-10-22T05:27:31Z,42.805,6.029,13.3007,4.60043,2470.437,2021-10-22T07:28:55Z
2021-10-22T05:30:34Z,42.805,6.029,13.3007,4.60051,2470.46,2021-10-22T07:31:58Z
2021-10-22T05:33:37Z,42.805,6.029,13.3023,4.60093,2470.413,2021-10-22T07:35:02Z
2021-10-22T05:36:41Z,42.805,6.029,13.3011,4.60046,2470.437,2021-10-22T07:38:05Z
2021-10-22T05:39:44Z,42.805,6.029,13.3006,4.60046,2470.437,2021-10-22T07:41:08Z
2021-10-22T05:42:47Z,42.805,6.029,13.3013,4.60049,2470.45,2021-10-22T07:44:11Z
2021-10-22T05:45:50Z,42.805,6.029,13.3007,4.60044,2470.437,2021-10-22T07:47:14Z
2021-10-22T05:48:53Z,42.805,6.029,13.3009,4.60052,2470.45,2021-10-22T07:50:17Z
2021-10-22T05:51:56Z,42.805,6.029,13.3013,4.60078,2470.427,2021-10-22T07:53:20Z
2021-10-22T05:54:59Z,42.805,6.029,13.3009,4.60045,2470.474,2021-10-22T07:56:23Z
2021-10-22T05:58:02Z,42.805,6.029,13.3004,4.60049,2470.45,2021-10-22T07:59:27Z
2021-10-22T06:01:06Z,42.805,6.029,13.3008,4.60066,2470.474,2021-10-22T08:02:30Z
2021-10-22T06:04:09Z,42.805,6.029,13.3004,4.60046,2470.413,2021-10-22T08:05:33Z
2021-10-22T06:07:12Z,42.805,6.029,13.3004,4.60057,2470.46,2021-10-22T08:08:36Z
2021-10-22T06:10:15Z,42.805,6.029,13.3011,4.60068,2470.437,2021-10-22T08:11:39Z
2021-10-22T06:13:18Z,42.805,6.029,13.3015,4.60099,2470.437,2021-10-22T08:14:42Z
2021-10-22T06:16:21Z,42.805,6.029,13.3009,4.60049,2470.474,2021-10-22T08:17:45Z
2021-10-22T06:19:24Z,42.805,6.029,13.3000,4.60043,2470.497,2021-10-22T08:20:48Z
2021-10-22T06:22:27Z,42.805,6.029,13.3000,4.60046,2470.474,2021-10-22T08:23:52Z
2021-10-22T06:25:31Z,42.805,6.029,13.3006,4.60059,2470.483,2021-10-22T08:26:55Z
2021-10-22T06:28:34Z,42.805,6.029,13.3007,4.60057,2470.46,2021-10-22T08:29:58Z
2021-10-22T06:31:37Z,42.805,6.029,13.3001,4.60044,2470.52,2021-10-22T08:33:01Z
2021-10-22T06:34:40Z,42.805,6.029,13.3004,4.60032,2470.483,2021-10-22T08:36:04Z
2021-10-22T06:37:43Z,42.805,6.029,13.3008,4.60053,2470.507,2021-10-22T08:39:07Z
2021-10-22T06:40:46Z,42.805,6.029,13.3006,4.60032,2470.507,2021-10-22T08:42:10Z
2021-10-22T06:43:49Z,42.805,6.029,13.3019,4.60046,2470.507,2021-10-22T08:45:13Z
2021-10-22T06:46:52Z,42.805,6.029,13.3011,4.60074,2470.497,2021-10-22T08:48:16Z
2021-10-22T06:49:56Z,42.805,6.029,13.3012,4.60046,2470.52,2021-10-22T08:51:20Z
2021-10-22T06:52:59Z,42.805,6.029,13.3015,4.60060,2470.52,2021-10-22T08:54:23Z
2021-10-22T06:56:02Z,42.805,6.029,13.3012,4.60072,2470.52,2021-10-22T08:57:26Z
2021-10-22T06:59:05Z,42.805,6.029,13.3014,4.60059,2470.52,2021-10-22T09:00:29Z
2021-10-22T07:02:08Z,42.805,6.029,13.3008,4.60059,2470.507,2021-10-22T09:03:32Z
2021-10-22T07:05:11Z,42.805,6.029,13.3019,4.60062,2470.507,2021-10-22T09:06:35Z
2021-10-22T07:08:14Z,42.805,6.029,13.3015,4.60055,2470.52,2021-10-22T09:09:38Z
2021-10-22T07:11:17Z,42.805,6.029,13.3025,4.60102,2470.544,2021-10-22T09:12:41Z
2021-10-22T07:14:20Z,42.805,6.029,13.3027,4.60081,2470.507,2021-10-22T09:15:45Z
2021-10-22T07:17:24Z,42.805,6.029,13.3014,4.60062,2470.52,2021-10-22T09:18:48Z
2021-10-22T07:20:27Z,42.805,6.029,13.3011,4.60054,2470.544,2021-10-22T09:21:51Z
2021-10-22T07:23:30Z,42.805,6.029,13.3004,4.60062,2470.52,2021-10-22T09:24:54Z
2021-10-22T07:26:33Z,42.805,6.029,13.3007,4.60053,2470.507,2021-10-22T09:27:57Z
2021-10-22T07:29:36Z,42.805,6.029,13.3015,4.60046,2470.52,2021-10-22T09:31:00Z
2021-10-22T07:32:39Z,42.805,6.029,13.3009,4.60056,2470.507,2021-10-22T09:34:03Z
2021-10-22T07:35:42Z,42.805,6.029,13.3013,4.60064,2470.544,2021-10-22T09:37:06Z
2021-10-22T07:38:45Z,42.805,6.029,13.3015,4.60061,2470.52,2021-10-22T09:40:10Z
2021-10-22T07:41:49Z,42.805,6.029,13.3011,4.60062,2470.52,2021-10-22T09:43:13Z
2021-10-22T07:44:52Z,42.805,6.029,13.3015,4.60085,2470.52,2021-10-22T09:46:16Z
2021-10-22T07:47:55Z,42.805,6.029,13.3024,4.60082,2470.53,2021-10-22T09:49:19Z
2021-10-22T07:50:58Z,42.805,6.029,13.3018,4.60081,2470.53,2021-10-22T09:52:22Z
2021-10-22T07:54:01Z,42.805,6.029,13.3011,4.60076,2470.53,2021-10-22T09:55:25Z
2021-10-22T07:57:04Z,42.805,6.029,13.3022,4.60087,2470.53,2021-10-22T09:58:28Z
2021-10-22T08:00:07Z,42.805,6.029,13.3028,4.60085,2470.544,2021-10-22T10:01:31Z
2021-10-22T08:03:10Z,42.805,6.029,13.3018,4.60052,2470.53,2021-10-22T10:04:35Z
2021-10-22T08:06:14Z,42.805,6.029,13.3006,4.60044,2470.544,2021-10-22T10:07:38Z
2021-10-22T08:09:17Z,42.805,6.029,13.3004,4.60060,2470.53,2021-10-22T10:10:41Z
2021-10-22T08:12:20Z,42.805,6.029,13.3013,4.60069,2470.544,2021-10-22T10:13:44Z
2021-10-22T08:15:23Z,42.805,6.029,13.3011,4.60052,2470.544,2021-10-22T10:16:47Z
2021-10-22T08:18:26Z,42.805,6.029,13.3000,4.60063,2470.544,2021-10-22T10:19:50Z
2021-10-22T08:21:29Z,42.805,6.029,13.2996,4.60078,2470.544,2021-10-22T10:22:53Z
2021-10-22T08:24:32Z,42.805,6.029,13.3011,4.60057,2470.53,2021-10-22T10:25:57Z
2021-10-22T08:27:36Z,42.805,6.029,13.3004,4.60087,2470.507,2021-10-22T10:29:00Z
2021-10-22T08:30:39Z,42.805,6.029,13.3008,4.60064,2470.52,2021-10-22T10:32:03Z
2021-10-22T08:33:42Z,42.805,6.029,13.3007,4.60046,2470.544,2021-10-22T10:35:06Z
2021-10-22T08:36:45Z,42.805,6.029,13.3010,4.60087,2470.53,2021-10-22T10:38:09Z
2021-10-22T08:39:48Z,42.805,6.029,13.3004,4.60052,2470.507,2021-10-22T10:41:12Z
2021-10-22T08:42:51Z,42.805,6.029,13.3003,4.60074,2470.53,2021-10-22T10:44:15Z
2021-10-22T08:45:54Z,42.805,6.029,13.3004,4.60083,2470.507,2021-10-22T10:47:18Z
2021-10-22T08:48:57Z,42.805,6.029,13.3009,4.60067,2470.53,2021-10-22T10:50:22Z
2021-10-22T08:52:01Z,42.805,6.029,13.3004,4.60091,2470.483,2021-10-22T10:53:25Z
2021-10-22T08:55:04Z,42.805,6.029,13.3006,4.60094,2470.507,2021-10-22T10:56:28Z
2021-10-22T08:58:07Z,42.805,6.029,13.3014,4.60052,2470.544,2021-10-22T10:59:31Z
2021-10-22T09:01:10Z,42.805,6.029,13.3005,4.60080,2470.544,2021-10-22T11:02:34Z
2021-10-22T09:04:13Z,42.805,6.029,13.3010,4.60071,2470.497,2021-10-22T11:05:37Z
2021-10-22T09:07:16Z,42.805,6.029,13.3006,4.60063,2470.483,2021-10-22T11:08:40Z
2021-10-22T09:10:19Z,42.805,6.029,13.3019,4.60089,2470.53,2021-10-22T11:11:43Z
2021-10-22T09:13:22Z,42.805,6.029,13.3014,4.60099,2470.52,2021-10-22T11:14:47Z
2021-10-22T09:16:26Z,42.805,6.029,13.3028,4.60084,2470.497,2021-10-22T11:17:50Z
2021-10-22T09:19:29Z,42.805,6.029,13.3021,4.60099,2470.497,2021-10-22T11:20:53Z
2021-10-22T09:22:32Z,42.805,6.029,13.3029,4.60137,2470.497,2021-10-22T11:23:56Z
2021-10-22T09:25:35Z,42.805,6.029,13.3014,4.60081,2470.544,2021-10-22T11:26:59Z
2021-10-22T09:28:38Z,42.805,6.029,13.3006,4.60088,2470.52,2021-10-22T11:30:02Z
2021-10-22T09:31:41Z,42.805,6.029,13.3024,4.60061,2470.483,2021-10-22T11:33:05Z
2021-10-22T09:34:44Z,42.805,6.029,13.3036,4.60089,2470.52,2021-10-22T11:36:08Z
2021-10-22T09:37:47Z,42.805,6.029,13.3017,4.60096,2470.483,2021-10-22T11:39:12Z
2021-10-22T09:40:51Z,42.805,6.029,13.3011,4.60095,2470.497,2021-10-22T11:42:15Z
2021-10-22T09:43:54Z,42.805,6.029,13.3034,4.60107,2470.483,2021-10-22T11:45:18Z
2021-10-22T09:46:57Z,42.805,6.029,13.3031,4.60106,2470.474,2021-10-22T11:48:21Z
2021-10-22T09:50:00Z,42.805,6.029,13.3022,4.60084,2470.52,2021-10-22T11:51:24Z
2021-10-22T09:53:03Z,42.805,6.029,13.3011,4.60085,2470.474,2021-10-22T11:54:27Z
2021-10-22T09:56:06Z,42.805,6.029,13.3021,4.60077,2470.483,2021-10-22T11:57:30Z
2021-10-22T09:59:09Z,42.805,6.029,13.3020,4.60097,2470.483,2021-10-22T12:00:34Z
2021-10-22T10:02:12Z,42.805,6.029,13.3009,4.60075,2470.507,2021-10-22T12:03:37Z
2021-10-22T10:05:16Z,42.805,6.029,13.3005,4.60072,2470.497,2021-10-22T12:06:40Z
2021-10-22T10:08:19Z,42.805,6.029,13.3021,4.60095,2470.497,2021-10-22T12:09:43Z
2021-10-22T10:11:22Z,42.805,6.029,13.3010,4.60095,2470.497,2021-10-22T12:12:46Z
2021-10-22T10:14:25Z,42.805,6.029,13.3006,4.60078,2470.483,2021-10-22T12:15:49Z
2021-10-22T10:17:28Z,42.805,6.029,13.3007,4.60072,2470.474,2021-10-22T12:18:52Z
2021-10-22T10:20:31Z,42.805,6.029,13.3027,4.60084,2470.497,2021-10-22T12:21:55Z
2021-10-22T10:23:34Z,42.805,6.029,13.3023,4.60108,2470.497,2021-10-22T12:24:59Z
2021-10-22T10:26:37Z,42.805,6.029,13.3024,4.60090,2470.474,2021-10-22T12:28:02Z
2021-10-22T10:29:41Z,42.805,6.029,13.3015,4.60076,2470.483,2021-10-22T12:31:05Z
2021-10-22T10:32:44Z,42.805,6.029,13.3016,4.60076,2470.46,2021-10-22T12:34:08Z
2021-10-22T10:35:47Z,42.805,6.029,13.3021,4.60074,2470.437,2021-10-22T12:37:11Z
2021-10-22T10:38:50Z,42.805,6.029,13.3013,4.60109,2470.497,2021-10-22T12:40:14Z
2021-10-22T10:41:53Z,42.805,6.029,13.3025,4.60116,2470.46,2021-10-22T12:43:17Z
2021-10-22T10:44:56Z,42.805,6.029,13.3018,4.60070,2470.483,2021-10-22T12:46:20Z
2021-10-22T10:47:59Z,42.805,6.029,13.3012,4.60052,2470.474,2021-10-22T12:49:24Z
2021-10-22T10:51:03Z,42.805,6.029,13.3011,4.60088,2470.45,2021-10-22T12:52:27Z
2021-10-22T10:54:06Z,42.805,6.029,13.3019,4.60080,2470.45,2021-10-22T12:55:30Z
2021-10-22T10:57:09Z,42.805,6.029,13.3028,4.60090,2470.46,2021-10-22T12:58:33Z
2021-10-22T11:00:12Z,42.805,6.029,13.3005,4.60074,2470.45,2021-10-22T13:01:36Z
2021-10-22T11:03:15Z,42.805,6.029,13.3007,4.60072,2470.45,2021-10-22T13:04:39Z
2021-10-22T11:06:18Z,42.805,6.029,13.3029,4.60089,2470.437,2021-10-22T13:07:42Z
2021-10-22T11:09:21Z,42.805,6.029,13.3009,4.60077,2470.46,2021-10-22T13:10:45Z
2021-10-22T11:12:24Z,42.805,6.029,13.3022,4.60063,2470.45,2021-10-22T13:13:49Z
2021-10-22T11:15:28Z,42.805,6.029,13.3028,4.60081,2470.413,2021-10-22T13:16:52Z
2021-10-22T11:18:31Z,42.805,6.029,13.3015,4.60103,2470.427,2021-10-22T13:19:55Z
2021-10-22T11:21:34Z,42.805,6.029,13.3019,4.60093,2470.427,2021-10-22T13:22:58Z
2021-10-22T11:24:37Z,42.805,6.029,13.3022,4.60125,2470.437,2021-10-22T13:26:01Z
2021-10-22T11:27:40Z,42.805,6.029,13.3016,4.60096,2470.413,2021-10-22T13:29:04Z
2021-10-22T11:30:43Z,42.805,6.029,13.3017,4.60079,2470.413,2021-10-22T13:32:07Z
2021-10-22T11:33:46Z,42.805,6.029,13.3028,4.60121,2470.39,2021-10-22T13:35:10Z
2021-10-22T11:36:49Z,42.805,6.029,13.3021,4.60100,2470.427,2021-10-22T13:38:14Z
2021-10-22T11:39:53Z,42.805,6.029,13.3019,4.60092,2470.45,2021-10-22T13:41:17Z
2021-10-22T11:42:56Z,42.805,6.029,13.3017,4.60090,2470.413,2021-10-22T13:44:20Z
2021-10-22T11:45:59Z,42.805,6.029,13.3013,4.60080,2470.366,2021-10-22T13:47:23Z
2021-10-22T11:49:02Z,42.805,6.029,13.3021,4.60072,2470.413,2021-10-22T13:50:26Z
2021-10-22T11:52:05Z,42.805,6.029,13.3014,4.60082,2470.437,2021-10-22T13:53:29Z
2021-10-22T11:55:08Z,42.805,6.029,13.3024,4.60084,2470.39,2021-10-22T13:56:32Z
2021-10-22T11:58:11Z,42.805,6.029,13.3015,4.60092,2470.39,2021-10-22T13:59:36Z
2021-10-22T12:01:14Z,42.805,6.029,13.3031,4.60078,2470.404,2021-10-22T14:02:39Z
2021-10-22T12:04:18Z,42.805,6.029,13.3009,4.60067,2470.413,2021-10-22T14:05:42Z
2021-10-22T12:07:21Z,42.805,6.029,13.3011,4.60071,2470.39,2021-10-22T14:08:45Z
2021-10-22T12:10:24Z,42.805,6.029,13.3032,4.60082,2470.38,2021-10-22T14:11:48Z
2021-10-22T12:13:27Z,42.805,6.029,13.3031,4.60072,2470.39,2021-10-22T14:14:51Z
2021-10-22T12:16:30Z,42.805,6.029,13.3018,4.60089,2470.404,2021-10-22T14:17:54Z
2021-10-22T12:19:33Z,42.805,6.029,13.3025,4.60084,2470.404,2021-10-22T14:20:57Z
2021-10-22T12:22:37Z,42.805,6.029,13.3028,4.60081,2470.39,2021-10-22T14:24:01Z
2021-10-22T12:25:40Z,42.805,6.029,13.3022,4.60112,2470.38,2021-10-22T14:27:04Z
2021-10-22T12:28:43Z,42.805,6.029,13.3029,4.60083,2470.39,2021-10-22T14:30:07Z
2021-10-22T12:31:46Z,42.805,6.029,13.3009,4.60087,2470.404,2021-10-22T14:33:10Z
2021-10-22T12:34:49Z,42.805,6.029,13.3021,4.60076,2470.404,2021-10-22T14:36:13Z
2021-10-22T12:37:52Z,42.805,6.029,13.3014,4.60099,2470.357,2021-10-22T14:39:16Z
2021-10-22T12:40:55Z,42.805,6.029,13.3021,4.60081,2470.366,2021-10-22T14:42:19Z
2021-10-22T12:43:58Z,42.805,6.029,13.3014,4.60075,2470.366,2021-10-22T14:45:22Z
2021-10-22T12:47:02Z,42.805,6.029,13.3015,4.60092,2470.39,2021-10-22T14:48:26Z
2021-10-22T12:50:05Z,42.805,6.029,13.3013,4.60072,2470.376,2021-10-22T14:51:29Z
2021-10-22T12:53:08Z,42.805,6.029,13.3017,4.60075,2470.366,2021-10-22T14:54:32Z
2021-10-22T12:56:11Z,42.805,6.029,13.3013,4.60099,2470.38,2021-10-22T14:57:35Z
2021-10-22T12:59:14Z,42.805,6.029,13.3014,4.60096,2470.39,2021-10-22T15:00:38Z
2021-10-22T13:02:17Z,42.805,6.029,13.3014,4.60069,2470.366,2021-10-22T15:03:41Z
2021-10-22T13:05:20Z,42.805,6.029,13.3029,4.60070,2470.343,2021-10-22T15:06:44Z
2021-10-22T13:08:23Z,42.805,6.029,13.3011,4.60090,2470.366,2021-10-22T15:09:47Z
2021-10-22T13:11:27Z,42.805,6.029,13.3017,4.60091,2470.343,2021-10-22T15:12:51Z
2021-10-22T13:14:30Z,42.805,6.029,13.3019,4.60059,2470.357,2021-10-22T15:15:54Z
2021-10-22T13:17:33Z,42.805,6.029,13.3015,4.60064,2470.366,2021-10-22T15:18:57Z
2021-10-22T13:20:36Z,42.805,6.029,13.3014,4.60072,2470.357,2021-10-22T15:22:00Z
2021-10-22T13:23:39Z,42.805,6.029,13.3024,4.60081,2470.38,2021-10-22T15:25:03Z
2021-10-22T13:26:42Z,42.805,6.029,13.3003,4.60081,2470.357,2021-10-22T15:28:06Z
2021-10-22T13:29:45Z,42.805,6.029,13.3010,4.60088,2470.357,2021-10-22T15:31:09Z
2021-10-22T13:32:48Z,42.805,6.029,13.3015,4.60089,2470.366,2021-10-22T15:34:13Z
2021-10-22T13:35:52Z,42.805,6.029,13.3010,4.60081,2470.366,2021-10-22T15:37:16Z
2021-10-22T13:38:55Z,42.805,6.029,13.3027,4.60074,2470.343,2021-10-22T15:40:19Z
2021-10-22T13:41:58Z,42.805,6.029,13.3015,4.60079,2470.343,2021-10-22T15:43:22Z
2021-10-22T13:45:01Z,42.805,6.029,13.3023,4.60088,2470.343,2021-10-22T15:46:25Z
2021-10-22T13:48:04Z,42.805,6.029,13.3015,4.60074,2470.343,2021-10-22T15:49:28Z
2021-10-22T13:51:07Z,42.805,6.029,13.3009,4.60058,2470.343,2021-10-22T15:52:31Z
2021-10-22T13:54:10Z,42.805,6.029,13.3007,4.60070,2470.357,2021-10-22T15:55:34Z
2021-10-22T13:57:13Z,42.805,6.029,13.3023,4.60059,2470.31,2021-10-22T15:58:38Z
2021-10-22T14:00:17Z,42.805,6.029,13.3009,4.60061,2470.32,2021-10-22T16:01:41Z
2021-10-22T14:03:20Z,42.805,6.029,13.3008,4.60067,2470.297,2021-10-22T16:04:44Z
2021-10-22T14:06:23Z,42.805,6.029,13.3020,4.60062,2470.357,2021-10-22T16:07:47Z
2021-10-22T14:09:26Z,42.805,6.029,13.3017,4.60076,2470.366,2021-10-22T16:10:50Z
2021-10-22T14:12:29Z,42.805,6.029,13.3010,4.60074,2470.357,2021-10-22T16:13:53Z
2021-10-22T14:15:32Z,42.805,6.029,13.3022,4.60076,2470.33,2021-10-22T16:16:56Z
2021-10-22T14:18:35Z,42.805,6.029,13.3021,4.60072,2470.33,2021-10-22T16:19:59Z
2021-10-22T14:21:39Z,42.805,6.029,13.3023,4.60099,2470.32,2021-10-22T16:23:03Z
2021-10-22T14:24:42Z,42.805,6.029,13.3018,4.60076,2470.32,2021-10-22T16:26:06Z
2021-10-22T14:27:45Z,42.805,6.029,13.3009,4.60081,2470.343,2021-10-22T16:29:09Z
2021-10-22T14:30:48Z,42.805,6.029,13.3013,4.60081,2470.343,2021-10-22T16:32:12Z
2021-10-22T14:33:51Z,42.805,6.029,13.3018,4.60077,2470.366,2021-10-22T16:35:15Z
2021-10-22T14:36:54Z,42.805,6.029,13.3009,4.60069,2470.357,2021-10-22T16:38:18Z
2021-10-22T14:39:57Z,42.805,6.029,13.3022,4.60077,2470.32,2021-10-22T16:41:21Z
2021-10-22T14:43:00Z,42.805,6.029,13.3009,4.60063,2470.357,2021-10-22T16:44:24Z
2021-10-22T14:46:04Z,42.805,6.029,13.3012,4.60052,2470.38,2021-10-22T16:47:28Z
2021-10-22T14:49:07Z,42.805,6.029,13.3006,4.60062,2470.343,2021-10-22T16:50:31Z
2021-10-22T14:52:10Z,42.805,6.029,13.3005,4.60057,2470.366,2021-10-22T16:53:34Z
2021-10-22T14:55:13Z,42.805,6.029,13.3004,4.60081,2470.357,2021-10-22T16:56:37Z
2021-10-22T14:58:16Z,42.805,6.029,13.3011,4.60060,2470.334,2021-10-22T16:59:40Z
2021-10-22T15:01:19Z,42.805,6.029,13.3019,4.60062,2470.343,2021-10-22T17:02:43Z